Location: Ottobeuren
(47.9410°N, 10.3007°E)
Time: 01:41:48
(UTC+01:00)

ISS - Visible Passes

Search period start: 20 February 2019 00:00
Search period end: 02 March 2019 00:00
Orbit: 403 x 411 km, 51.6° (Epoch: 20 February)

Date Brightness Start Highest point End Pass type
(mag) Time Alt. Az. Time Alt. Az. Time Alt. Az.
21 Feb -0.4 06:42:03 10° SSE 06:42:58 11° SE 06:43:52 10° ESE visible
23 Feb -1.4 06:33:35 10° SSW 06:36:12 23° SE 06:38:50 10° E visible
24 Feb -0.9 05:43:10 10° SSE 05:44:56 14° SE 05:46:42 10° ESE visible
25 Feb -2.8 06:26:24 10° SW 06:29:32 45° SSE 06:32:41 10° ENE visible
26 Feb -2.0 05:35:49 13° SSW 05:38:09 28° SE 05:41:00 10° E visible
27 Feb -1.4 04:46:42 17° SE 04:46:49 17° SE 04:49:03 10° E visible
27 Feb -3.8 06:19:40 10° WSW 06:22:57 86° SSE 06:26:14 10° ENE visible
28 Feb -3.4 05:30:09 31° SW 05:31:27 56° SSE 05:34:40 10° ENE visible
01 Mar -2.1 04:40:46 30° ESE 04:40:46 30° ESE 04:43:00 10° ENE visible
01 Mar -3.6 06:13:28 12° W 06:16:25 59° NNW 06:19:40 10° ENE visible
